[新聞] 79.9萬起!小改款Nissan Kicks預售價公

看板 Car
作者
時間
留言 189則留言,141人參與討論
推噓 93  ( 108推 15噓 66→ )
79.9萬起!小改款Nissan Kicks預售價公布 與HR-V休旅打價格戰 https://bit.ly/3M4iWul 2022年09月28日 19:17 記者徐煜展/綜合報導 台灣Nissan裕隆日產今(9/28)揭露小改款Kicks預售價,提供2款車型編成,79.9萬元起要 與HONDA HR-V、TOYOTA Corolla Cross來競爭! 台灣小改款Nissan Kicks提供卓越版、旗艦版2款車型,預售價分別為79.9、83.9萬元,並 在本週特定展間舉辦VIP預賞接單,安排在10月6日正式上市。 https://i.imgur.com/L4F47HS.jpg
https://i.imgur.com/g9HrLiX.jpg
https://i.imgur.com/YwZsLX7.jpg
https://i.imgur.com/P9Hqzp1.jpg
--
※ 發信站: 批踢踢實業坊(ptt.cc), 來自: 42.72.157.244 (臺灣) ※ 文章網址: https://www.ptt.cc/bbs/car/M.1664364602.A.F5E.html
1FALLEN17: 五樓買十台 09/28 19:33
2FMulsanne: CC屌打 09/28 19:34
3FWORLDKING56: 蠻好看的 09/28 19:35
4FBeetch: 醜 09/28 19:36
5Fkyo33: 車頭變好看很多,可惜沒車道置中 09/28 19:38
6Fdevin0329: 沒有Level 2怎麼賣 09/28 19:39
7Frul543: Kia Stonic比較香 09/28 19:39
8Frogerboy: HRV可以下去了 09/28 19:40
9FFiztcc: 旗艦版正式售價應該要壓在79.9以下感覺比較實惠 09/28 19:41
10Fasd21714: https://i.imgur.com/wLfOFq5.jpg 09/28 19:44
11Fhaunt11: 咦 icc勒 09/28 19:44
12Fsanpeter: 變好看了 09/28 19:44
13Fhank12332: 看能不能從CC搶個200台過來 09/28 19:44
14Fasd21714: https://i.imgur.com/lAEGRkC.jpg 09/28 19:44
15Fasd21714: 今天好像在拍廣告(? 09/28 19:45
16Fbboywhite: 卓越版有興趣 09/28 19:49
17Fxru03: 變好看+1 09/28 19:50
18Fzxcvbnmnbvcx: LV2? 09/28 19:53
19FMK47: 比現行款好看+1 09/28 19:54
20Fzhutou: 屁股跟上流行把尾燈連起來 頭尾都不錯看 09/28 19:56
21Fga3322165: 這外觀…是東抄西抄嗎? 09/28 19:57
22Fmaximu: CC屌打 09/28 19:58
23FSungHyun: 又帥又便宜 錢給你快點出 09/28 19:58
24FMadao0149: 這才有競爭力 09/28 19:59
25Fnumbtch236: 空間很不休旅 09/28 19:59
26Fhsudens: 看吧 Nissan沒LED的尾燈就是等改款準備的 09/28 20:00
27Fnumbtch236: CC連電子手煞車都沒有 09/28 20:00
28FMadao0149: 旗艦跟MG差太少反而沒這麼划 09/28 20:01
29Fwudd: 國慘車~ 09/28 20:01
30Fwindowdoor: 賣爆 09/28 20:03
31Fkingdomsss: 如果還是CVT7 那還是一樣烙賽 09/28 20:03
32Fmarxliu: 沒L2? 09/28 20:04
33Fshengkao: 這一定賣爆 09/28 20:05
34Fyao03911: 外觀感覺有進步 09/28 20:05
35Fsjerrysss: 一台挑高的小型掀背賣80萬,大家不覺得很貴嗎? 09/28 20:18
36Fpp938077: 不錯看 09/28 20:19
37Fsm981512: 好像qashqai 09/28 20:24
38FBrandonMai: 總算有LED尾燈 09/28 20:29
39Ftpshin: 不錯看,可是這開價也叫價格戰?? 09/28 20:29
40Fmy7752: https://i.imgur.com/62w1h4C.jpg 09/28 20:29
41Fmy7752: 還有更貴的。 09/28 20:29
42Fsdfg014025xx: 可惜沒有完整Lv2z 09/28 20:30
43FMK47: vitara那個圖是真的還是亂做的啊?貨車賣94萬? 09/28 20:38
44FKarlMarx: 有上ACC了,但沒車道置中,非完整LV2。 09/28 20:39
45Fhaoa: 有完整LV2價格就不是只有這樣了 09/28 20:40
46Ftd770715: 內裝還是一樣阿 09/28 20:41
47Fhanasiro: 這種都會小車配備給這樣還算可以啦 你桑折扣又大 09/28 20:41
48Fwhitecow: 連nissan都敢開這種價 09/28 20:50
49Fvic4807: 這台都默默一直賣 09/28 20:50
50Fsata0905: 價格不太吸引人 09/28 20:50
51Fxx90185: HRV比較好 09/28 20:55
52FLowpapa: 只值65萬 09/28 20:55
53FSDFSDF: 折5萬還行 折兩萬了話 舊車折10萬比較划算但醜 09/28 20:55
54Fwoodstock614: 沒有keyless? 09/28 20:58
55Fihongming: 沒LV2?連這種鳥車廠也敢學蘋果擠牙膏 下去 09/28 20:59
56Ffred0755: 尾巴還是一樣醜 車頭不錯 09/28 21:00
57Fab1026430: 煞車跟油門還是一樣不線性吧 09/28 21:04
58Fkuominj: 出這台車在幹嘛? 09/28 21:06
59Ffinasoul: 看起來可以放新鮮屋的飲料 09/28 21:08
60Fjami172: asd大那是在埔里暨大嗎 09/28 21:12
61Fvie1118: 跟隔壁本田一樣…有油電不賣… 09/28 21:13
62FAMSTERDAM14: 全速域80萬 可以喔 沙發又好坐 買了! 09/28 21:17
63Ftcavs18: 現在一個月就一千台了 折價後大概75萬 應該會賣爆 09/28 21:21
64Fmarzcm: 照之前的銷量 hrv可以直接停產了 09/28 21:22
65Finging841009: 有auto hold 09/28 21:23
66Fccshgoodboy: 有藍色,流口水.. 09/28 21:27
67Froyli: 小車都好貴 09/28 21:28
68Fwindowdoor: 說實在寧願要EPB autohold 也不要腳煞車 09/28 21:28
69Fannzheng81: 車維vs autohold 09/28 21:31
70Fescobar006: 加6萬買mg,嘻嘻 09/28 21:33
71Fescobar006: cc只要改電子手煞車,就真的一桶了 09/28 21:34
72Fbb10181128: 沒車道置中 可憐 09/28 21:36
73FSIL: 唔…79.9萬這定價叫價格戰…只能說時代變了 XD 09/28 21:45
74FYeeeeeTW: 旗艦版才有盲點? 09/28 21:50
75Fhahaha42: 油電何時來啊 09/28 21:55
76Fescobar006: 能折10萬再叫我 09/28 21:57
77Fdevin0329: cc沒有電子手煞車也一統啊...... 09/28 21:58
78Fdevin0329: Kicks沒有LV2真的讓HR-V爽死鬆了一大口氣 09/28 21:58
79Flan304cer: 鄉民94反指標 推文罵成這樣肯定賣爆 09/28 22:03
80Fabxtpml56: HRV都停產 爽個頭 09/28 22:08
81Fdai26: 笑屎 09/28 22:12
82Fdai26: 之前STONIC 1.0還被嫌貴,現在看起來CP 值超高的 09/28 22:13
83Fymx3xc: 不錯啊 蠻好看的! 尾燈那貫穿式 有整條光條嗎? 09/28 22:20
84Fslip666slip: HRV又出產了,超爽 09/28 22:20
85Fymx3xc: 還是中間部分裝飾而已? 09/28 22:20
86Fbndan: 看了半天..所以到底和原本的旗鑑差了什麼? 09/28 22:25
87Fbndan: 藍色真的不錯看就是了.. 09/28 22:25
88Filoveyys: 差了led尾燈 acc autohold 09/28 22:28
89Fwaterdesign: 終於跟上Corolla Cross標配6SRS+ADAS但是貴10萬? 09/28 22:38
90Fufk: 還有差了引擎,從1.5變1.6,車機變大1吋 09/28 22:53
91FAMSTERDAM14: 沒車道致中? 那就沒用了 09/28 22:54
92Fhank12332: 比cc多電子手煞車跟標配CP&AA 09/28 22:54
93Fhank12332: 我覺得光是不需要加購好幾萬才有CP&AA就比CC好太多 09/28 22:55
94Fhank12332: 了XD 09/28 22:55
95Fa894392000: 太貴了 09/28 23:00
96Fjameslin510: 改這樣乾脆不要改 09/28 23:11
97FLinjax: Stonic 可惜沒全速+傳統手煞 不然開過還蠻好開 09/28 23:31
98Fipadpro2: 有電子手煞車配autohold就是屌打TOYOTA CC 09/28 23:33
99Fa9564208: 折十萬還嫌太少 09/28 23:44
100Flee7922412: 先推有LED,autohold屌打cc腳踩 09/29 00:10
101FLinjax: 比較期待 X翠 09/29 00:21
102Flauoosai: 沒有e-power沒有買的價值 09/29 00:39
103FmarshmallowH: Venue除了外型 其他輸滿地 09/29 00:43
104Fcofejt: 1.6NA + CVT 只值50萬 09/29 01:06
105Fsolidmiss: 好貴.... 09/29 01:07
106Fd26672002: 又只給車道警示 09/29 01:20
107Fpemit: 沒e-power 09/29 04:47
108Ffacebookig: 跟VOLVO車尾一樣醜死了 09/29 04:59
109FAbdulRauf: 這價錢是在說不如買mg 09/29 05:09
110Fdebris: 沒置中沒e-power 你在開我玩笑吧 09/29 05:35
111Ffirzen5308: 怎麼還沒有置中 09/29 06:16
112Ffinasoul: 缺置中可以下去了... 09/29 06:22
113Ffinasoul: Hrv72km以上才能用的車維也是ooxx 09/29 06:26
114Fcchpt: 這個1.6應該是sentra那顆,數據看起來不錯但配了CVT 09/29 06:56
115Fcchpt: … 09/29 06:56
116FChungLi5566: 現在沒全速域+Lv2的車別買了 09/29 07:23
117FNEX4036: 沒e-Power 結案。 09/29 07:24
118Flightmei: 感覺還行 09/29 07:32
119Flunkk: 79萬還可以 不過MG多10萬有LV2 09/29 07:57
120Flunkk: 就看重不重視這功能了 09/29 07:58
121FPrimk: 連中央扶手都寫進配備XD 方面盤可以四向調整了沒 09/29 08:07
122Frc9922270: 牌價訂高再給你高折價然後等於沒折價 09/29 08:14
123Fmy7752: https://youtu.be/x71FuHQjOfA 09/29 08:25
124Fmy7752: 影片出來了 09/29 08:25
125Fajcky: 嗯~好窩~我買MG的抉擇是對的 09/29 08:33
126FSmsausage: 它ICC和 CC一樣0km後都要自己踩… 09/29 08:46
127Fcwttt: 先來個智障定價,再來個折十萬起跳,日產玩法 09/29 08:48
128Fkalmia: 至少是Nissan不是MG 雖然台灣代理都同一個集團 09/29 08:52
129Fkalmia: 不比較動力的話CC真的沒什麼優點 然後又比較貴 09/29 08:54
130Fsuperwet88: 內裝看起來有夠廉價 09/29 08:54
131FLukerr: MG屌打 09/29 09:08
132Fgooff: hrv應該又要被打了 09/29 09:26
133Fufk: 我的老天,我以為全速域ACC+電子手煞車就有stop&go 09/29 09:31
134Fufk: 結果竟然沒有,acc跟到停後3秒就要人介入,失望 09/29 09:32
135Fufk: 看來還是選CC或是賭MG了 09/29 09:33
136Fga3322165: 現代屌打 09/29 09:52
137Fjemmak629: Hrv 都停了是要比啥 09/29 10:09
138Fbeergap: 改名叫高端汽車看看有沒有機會啦 09/29 10:10
139Fiamandre: cc沒電子手煞車??? 09/29 10:32
140Fmy7752: CC有電子手煞??? 09/29 10:38
141Fmy7752: MC妥善率確定之前我寧願買日產 09/29 10:40
142FJOHN2188: 沒車道維持,ICC又沒stop&go,下去吧 09/29 10:41
143Fmy7752: MG 打錯 09/29 10:42
144Faas813913: 一樣都國產,買MG還更有料 09/29 10:45
145FAustinRivers: 可惜引擎不是1.8 09/29 11:16
146Fufk: cc沒電子手煞車,而且是我最討厭的腳踩的手煞,但它 09/29 11:19
147Fufk: 有車道置中啊,雖然沒有非常平順,但堪用 09/29 11:19
148Fcocoi: 1.5NA 80萬,台灣真給力,噗哈哈哈... 09/29 11:41
149FOtterMan: 沒人討論epower嗎...? 09/29 11:45
150Ftheone5204: CC那腳煞車真的囧 09/29 11:47
151Fneon7134: 死都不進epower必噓 09/29 12:01
152Flunkk: 好怪 都有auto hold為何跟到停只給3秒? 09/29 12:04
153Flunkk: 還不能自己啟動? 09/29 12:05
154Ftheone5204: 一堆MG的笑死 09/29 12:36
155Fdavidd0314: 抱歉!MG一出,誰與爭鋒,kicks CC,莫敢不從,唯我 09/29 12:40
156Fdavidd0314: MG,車林稱雄 09/29 12:40
157Fb642897: 好慘 沒6x的價格了 09/29 12:42
158Fhank12332: MG看起來很香,但是有太多不確定性了 09/29 13:13
159FMikeNapoli: 本來想嘴動力 後來發現HRV更廢 09/29 13:16
160Fr30385: 牙膏擠到爽 09/29 13:43
161Fultratimes: CC屌打 09/29 13:46
162Fkrezev: 中央扶手也能寫進來XD 09/29 13:46
163Fultratimes: 跨界休旅 腳踏手剎車才是王道好嗎 09/29 13:48
164FericFeng: https://i.imgur.com/ttdmLHw.jpg 09/29 13:50
165FJOHN2188: 2022都要結束了還有車廠沒學會全速域置中跟stop&go 09/29 14:13
166FJOHN2188: ,要不要直接跟福特買360阿笑死 09/29 14:13
167FJOHN2188: MG的殺手鐧是ZS EV跟MG4 EV,因為歐系的有產品但價 09/29 14:16
168FJOHN2188: 格貴一大截,日系則是連產品都沒有 09/29 14:16
169Fpii5566: 市面上實用的車維只有特斯拉吧,其他的根本搞笑。 09/29 14:39
170FBlacKlonely: 1.6自燃進氣賣80萬真棒 09/29 15:40
171FDick2: 沒後座出風口 沒車道置中 可惜 09/29 17:24
172Flosewind: 1.5自然進氣賣比他貴的怎麼算 09/29 17:28
173Fflymomo2001: 蠻可愛的 09/29 17:43
174Ftoprunner: 今天早上去看K"特仕車"報價多六萬89.9..真心買不下 09/29 19:39
175Ftoprunner: 可以不買"特仕車"款嗎~"~ 09/29 19:40
176Fsata0905: 83.9就貴了 還89.9特仕 09/29 20:07
177Fa901922001: Active 無敵 09/29 22:10
178Fkeigo20m: HRV 笑而不語 09/30 03:03
179Fchinya51: 牙膏要晚點買 09/30 08:04
180Fatbhao05: Mg 殺手 09/30 10:23
181Fkoalagogo: Kicks一直賣爆啊 09/30 13:44
182Fedweepvp: 有epower 的話 可能貴個10萬 09/30 16:30
183Fcocogogo: Hrv比較帥 10/01 11:02
184FYisense: 看來要大殺四方了 10/01 11:08
185Fabout19: epower日本都出來幾年了 10/01 18:36
186Fstartac28: 不懂為什麼有Autohold還要自己踩煞車,就算沒開ICC 10/06 16:38
187Fstartac28: ,停紅燈也應該不用踩煞車啊 10/06 16:38
188Ftuchenken: 比HR-V強多了 10/06 17:29
189FArdream: 車偏警示個頭… 10/17 19:06

car 最新熱門文章

22 [討論] 車室內的加大後照鏡
43 car 2022-11-25 22:43
16 [問題] 儀表自發光的邏輯?
37 car 2022-11-25 19:48
37 [討論] 鍍鉻飾條
64 car 2022-11-25 11:36
44 [問車]2016年出廠TIIDA
92 car 2022-11-25 11:28
24 [討論] 車內後視鏡掛東西
44 car 2022-11-25 10:17
31 [問題] 停在路邊停車格被撞
87 car 2022-11-25 01:38
17 [問題] 這是什麼車
24 car 2022-11-24 20:50
39 [分享] 好市多機油特價
65 car 2022-11-24 20:33
62 [問題] 停等紅燈要讓路嗎?
112 car 2022-11-24 20:16
25 [問題] 租車車型請益
39 car 2022-11-24 15:19